VE6CPK-13 Weather Reports


Display with metric or nautical units.
time (UTC)temp
F
wind
direction
speed
MPH
gust
MPH
rain 1hr
in
rain 24hr
in
rain mn
in
humidity
%
barometer
mb
20260505191829 48 358 1.0 7.0 0.00 0.01 0.01 35 1017.5
20260505191329 48 29 3.0 7.0 0.00 0.01 0.01 35 1017.4
20260505190829 48 138 1.0 7.0 0.00 0.01 0.01 36 1017.3
20260505190330 48 16 2.0 7.0 0.00 0.01 0.01 35 1017.4
20260505185830 48 8 1.0 7.0 0.00 0.01 0.01 36 1017.5
20260505185331 48 31 1.0 7.0 0.00 0.01 0.01 39 1017.5
20260505184829 48 13 3.0 7.0 0.00 0.01 0.01 36 1017.6
20260505184329 49 0 0.0 7.0 0.00 0.01 0.01 36 1017.5
20260505183829 49 21 3.0 7.0 0.00 0.01 0.01 39 1017.5
20260505183330 48 0 0.0 7.0 0.00 0.01 0.01 40 1017.5
20260505182830 48 22 2.0 7.0 0.00 0.01 0.01 40 1017.6
20260505182330 47 7 1.0 7.0 0.00 0.01 0.01 42 1017.6
20260505181831 47 42 1.0 7.0 0.00 0.01 0.01 40 1017.7
20260505181330 48 14 3.0 7.0 0.00 0.01 0.01 39 1017.7
20260505180830 48 31 1.0 7.0 0.00 0.01 0.01 41 1017.6
20260505180330 47 33 1.0 7.0 0.00 0.01 0.01 40 1017.6
20260505175829 47 42 0.0 7.0 0.00 0.01 0.01 42 1017.6
20260505175329 46 40 1.0 7.0 0.00 0.01 0.01 44 1017.5
20260505174830 45 11 0.0 7.0 0.00 0.01 0.01 44 1017.6
20260505174330 45 12 0.0 7.0 0.00 0.01 0.01 44 1017.6
20260505173835 44 24 1.0 7.0 0.00 0.01 0.01 46 1017.6
20260505173334 43 41 0.0 7.0 0.00 0.01 0.01 46 1017.6
20260505172835 43 11 1.0 7.0 0.00 0.01 0.01 48 1017.7
20260505172335 42 8 0.0 7.0 0.00 0.01 0.01 49 1017.7
20260505171833 42 29 0.0 7.0 0.00 0.01 0.01 49 1017.7
20260505171334 42 25 1.0 7.0 0.00 0.01 0.01 51 1017.7
20260505170833 42 0 1.0 7.0 0.00 0.01 0.01 50 1017.7
20260505170334 41 38 0.0 7.0 0.00 0.01 0.01 51 1017.6
20260505165835 41 344 1.0 7.0 0.00 0.01 0.01 52 1017.6
20260505165333 41 22 0.0 7.0 0.00 0.01 0.01 53 1017.6
20260505164834 41 7 2.0 7.0 0.00 0.01 0.01 54 1017.6
20260505164334 41 14 2.0 7.0 0.00 0.01 0.01 53 1017.6
20260505163834 41 21 2.0 7.0 0.00 0.01 0.01 54 1017.6
20260505163335 41 5 1.0 7.0 0.00 0.01 0.01 58 1017.5
20260505162833 41 5 0.0 7.0 0.00 0.01 0.01 58 1017.4
20260505162333 41 27 0.0 7.0 0.00 0.01 0.01 60 1017.4
20260505161834 40 28 0.0 7.0 0.00 0.01 0.01 61 1017.4
20260505161334 40 30 2.0 7.0 0.00 0.01 0.01 59 1017.4
20260505160834 40 355 1.0 7.0 0.00 0.01 0.01 62 1017.5
20260505160335 39 28 0.0 7.0 0.00 0.01 0.01 64 1017.5
20260505153334 38 36 1.0 7.0 0.00 0.01 0.01 66 1017.6
20260505152834 38 35 0.0 7.0 0.00 0.01 0.01 67 1017.5
20260505152333 38 35 0.0 7.0 0.00 0.01 0.01 68 1017.5
20260505151833 37 35 0.0 7.0 0.00 0.01 0.01 68 1017.6
20260505151333 37 26 0.0 7.0 0.00 0.01 0.01 67 1017.6
20260505150834 37 26 0.0 7.0 0.00 0.01 0.01 68 1017.5
20260505150334 37 26 0.0 7.0 0.00 0.01 0.01 70 1017.5
20260505140334 37 53 0.0 7.0 0.01 0.01 0.01 74 1017.3
20260505124833 36 25 0.0 7.0 0.00 0.00 0.00 68 1017.2
20260505124333 36 25 0.0 7.0 0.00 0.00 0.00 68 1017.2
20260505123833 36 25 0.0 7.0 0.00 0.00 0.00 69 1017.1
20260505123333 36 25 0.0 7.0 0.00 0.00 0.00 69 1017.1
20260505122833 36 25 0.0 7.0 0.00 0.00 0.00 69 1017.0
20260505122332 35 25 0.0 7.0 0.00 0.00 0.00 69 1017.0
20260505121832 35 25 0.0 7.0 0.00 0.00 0.00 70 1016.9
20260505121332 35 25 0.0 7.0 0.00 0.00 0.00 70 1016.9
20260505120834 35 25 0.0 7.0 0.00 0.00 0.00 70 1016.9
20260505120334 35 25 0.0 7.0 0.00 0.00 0.00 71 1016.9
20260505115834 35 25 0.0 7.0 0.00 0.00 0.00 71 1016.8
20260505115333 35 25 0.0 7.0 0.00 0.00 0.00 72 1016.7
20260505114832 35 24 0.0 7.0 0.00 0.00 0.00 73 1016.7
20260505114333 35 44 0.0 7.0 0.00 0.00 0.00 72 1016.7
20260505113832 35 46 0.0 7.0 0.00 0.00 0.00 72 1016.7
20260505113333 35 8 0.0 7.0 0.00 0.00 0.00 72 1016.7
20260505112832 36 26 0.0 7.0 0.00 0.00 0.00 72 1016.7
20260505112333 36 23 0.0 7.0 0.00 0.00 0.00 72 1016.6
20260505111833 36 9 1.0 7.0 0.00 0.00 0.00 72 1016.8
20260505111334 36 11 0.0 7.0 0.00 0.00 0.00 71 1016.6
20260505110834 36 0 0.0 7.0 0.00 0.00 0.00 70 1016.6
20260505110334 36 18 1.0 7.0 0.00 0.00 0.00 70 1016.7
20260505101832 38 16 1.0 6.0 0.00 0.00 0.00 69 1016.3
20260505101332 38 42 1.0 6.0 0.00 0.00 0.00 68 1016.3
20260505100833 38 22 2.0 6.0 0.00 0.00 0.00 68 1016.2
20260505100333 38 11 1.0 6.0 0.00 0.00 0.00 68 1016.0
20260505095832 39 14 1.0 6.0 0.00 0.00 0.00 67 1016.1
20260505095332 39 8 2.0 6.0 0.00 0.00 0.00 67 1016.0
20260505094832 39 5 1.0 6.0 0.00 0.00 0.00 66 1016.0
20260505094332 39 21 1.0 6.0 0.00 0.00 0.00 65 1016.0
20260505093832 39 0 2.0 6.0 0.00 0.00 0.00 65 1015.9
20260505093332 39 1 2.0 6.0 0.00 0.00 0.00 64 1015.9
20260505092832 39 15 1.0 6.0 0.00 0.00 0.00 63 1015.9
20260505092332 39 355 1.0 4.0 0.00 0.00 0.00 63 1015.9
20260505091833 39 5 1.0 4.0 0.00 0.00 0.00 62 1015.9
20260505091333 40 19 2.0 4.0 0.00 0.00 0.00 62 1015.9
20260505090832 40 1 1.0 4.0 0.00 0.00 0.00 61 1015.8
20260505090332 40 9 0.0 4.0 0.00 0.00 0.00 60 1015.7
20260505085832 40 2 1.0 4.0 0.00 0.00 0.00 60 1015.7
20260505085332 40 9 0.0 4.0 0.00 0.00 0.00 59 1015.7
20260505084833 40 13 0.0 4.0 0.00 0.00 0.00 59 1015.7
20260505084333 40 12 1.0 4.0 0.00 0.00 0.00 59 1015.7
20260505083832 40 0 1.0 4.0 0.00 0.00 0.00 59 1015.6
20260505083333 40 30 0.0 4.0 0.00 0.00 0.00 59 1015.6
20260505082832 40 17 1.0 4.0 0.00 0.00 0.00 59 1015.6
20260505082332 40 42 1.0 4.0 0.00 0.00 0.00 59 1015.6
20260505081832 40 11 0.0 4.0 0.00 0.00 0.00 59 1015.5
20260505081332 40 7 0.0 4.0 0.00 0.00 0.00 58 1015.5
20260505080832 40 355 1.0 4.0 0.00 0.00 0.00 58 1015.5
20260505080333 40 0 1.0 4.0 0.00 0.00 0.00 57 1015.4
20260505075832 41 346 1.0 4.0 0.00 0.00 0.00 56 1015.5
20260505075333 41 345 0.0 4.0 0.00 0.00 0.00 55 1015.4
20260505074831 41 342 0.0 4.0 0.00 0.00 0.00 54 1015.4
20260505074333 41 341 0.0 4.0 0.00 0.00 0.00 54 1015.3
20260505073832 41 341 0.0 4.0 0.00 0.00 0.00 53 1015.4
20260505073332 41 341 0.0 4.0 0.00 0.00 0.00 53 1015.5
20260505072833 41 341 0.0 4.0 0.00 0.00 0.00 52 1015.4
20260505072333 41 341 0.0 4.0 0.00 0.00 0.00 52 1015.4
20260505071832 42 341 0.0 4.0 0.00 0.00 0.00 51 1015.5
20260505071331 42 334 1.0 4.0 0.00 0.00 0.00 50 1015.4
20260505070832 42 45 1.0 4.0 0.00 0.01 0.00 49 1015.5
20260505070331 42 25 0.0 4.0 0.00 0.01 0.00 47 1015.5
20260505065832 43 103 0.0 4.0 0.00 0.01 0.00 46 1015.4
20260505065331 43 106 0.0 4.0 0.00 0.01 0.00 45 1015.4
20260505064832 43 103 0.0 4.0 0.00 0.01 0.00 44 1015.4
20260505064333 43 342 0.0 4.0 0.00 0.01 0.00 44 1015.3
20260505063831 43 329 0.0 4.0 0.00 0.01 0.00 43 1015.3
20260505063332 43 329 1.0 4.0 0.00 0.01 0.00 42 1015.3
20260505062831 44 341 1.0 4.0 0.00 0.01 0.00 41 1015.4
20260505062332 44 6 0.0 4.0 0.00 0.01 0.00 40 1015.3
20260505061833 44 349 1.0 4.0 0.00 0.01 0.00 40 1015.3
20260505061331 44 15 1.0 4.0 0.00 0.01 0.00 39 1015.2
20260505060831 44 13 1.0 4.0 0.00 0.01 0.00 37 1015.2
20260505060332 44 17 0.0 3.0 0.00 0.01 0.00 37 1015.2
20260505055832 44 0 1.0 15.0 0.00 0.01 0.01 36 1015.2
20260505055331 45 19 2.0 15.0 0.00 0.01 0.01 36 1015.1
20260505054831 45 10 3.0 15.0 0.00 0.01 0.01 36 1015.2
20260505054332 45 4 2.0 15.0 0.00 0.01 0.01 37 1015.1
20260505053831 45 14 2.0 15.0 0.00 0.01 0.01 36 1015.0
20260505053331 45 24 1.0 15.0 0.00 0.01 0.01 36 1015.0
20260505052832 45 20 0.0 15.0 0.00 0.01 0.01 35 1015.0
20260505052332 46 14 1.0 15.0 0.00 0.01 0.01 35 1014.9
20260505051832 46 11 1.0 15.0 0.00 0.01 0.01 35 1014.8
20260505051332 46 9 1.0 15.0 0.00 0.01 0.01 35 1014.7
20260505050831 46 12 0.0 15.0 0.00 0.01 0.01 35 1014.7
20260505050332 46 357 2.0 15.0 0.00 0.01 0.01 35 1014.6
20260505041332 47 44 0.0 15.0 0.00 0.01 0.01 35 1014.0
20260505040832 47 30 0.0 15.0 0.00 0.01 0.01 35 1014.0
20260505040331 47 8 3.0 15.0 0.00 0.01 0.01 34 1013.9
20260505035831 47 351 0.0 15.0 0.00 0.01 0.01 35 1013.9
20260505035331 48 19 2.0 15.0 0.00 0.01 0.01 35 1013.8
20260505034831 48 34 0.0 15.0 0.00 0.01 0.01 35 1013.7
20260505034331 48 22 0.0 15.0 0.00 0.01 0.01 35 1013.7
20260505033831 48 35 1.0 15.0 0.00 0.01 0.01 34 1013.6
20260505033331 48 10 1.0 15.0 0.00 0.01 0.01 34 1013.5
20260505032831 48 11 1.0 15.0 0.00 0.01 0.01 34 1013.5
20260505032331 48 13 2.0 15.0 0.00 0.01 0.01 34 1013.4
20260505031831 48 356 2.0 15.0 0.00 0.01 0.01 33 1013.4
20260505031331 48 26 2.0 15.0 0.00 0.01 0.01 34 1013.2
20260505030831 48 28 1.0 15.0 0.00 0.01 0.01 34 1013.2
20260505030332 49 26 3.0 15.0 0.00 0.01 0.01 33 1013.2
20260505025832 49 13 2.0 15.0 0.00 0.01 0.01 33 1013.1
20260505025331 49 30 2.0 15.0 0.00 0.01 0.01 33 1013.0
20260505024832 49 3 2.0 15.0 0.00 0.01 0.01 33 1013.0
20260505024331 49 4 2.0 15.0 0.00 0.01 0.01 33 1012.9
20260505023831 49 18 2.0 15.0 0.00 0.01 0.01 32 1012.8
20260505023331 49 0 2.0 15.0 0.00 0.01 0.01 32 1012.8
20260505022831 50 21 2.0 15.0 0.00 0.01 0.01 31 1012.7
20260505022332 50 30 1.0 15.0 0.00 0.01 0.01 31 1012.6
20260505021832 50 20 1.0 15.0 0.00 0.01 0.01 31 1012.6
20260505021330 50 24 3.0 15.0 0.00 0.01 0.01 31 1012.6
20260505020832 50 14 2.0 15.0 0.00 0.01 0.01 30 1012.6
20260505020330 50 1 2.0 15.0 0.00 0.01 0.01 31 1012.5
20260505015831 50 10 2.0 15.0 0.00 0.01 0.01 30 1012.4
20260505015331 51 350 3.0 15.0 0.00 0.01 0.01 29 1012.4
20260505014832 51 15 5.0 15.0 0.00 0.01 0.01 29 1012.2
20260505014331 51 1 3.0 15.0 0.00 0.01 0.01 29 1012.2
20260505013832 51 22 2.0 15.0 0.00 0.01 0.01 28 1012.1
20260505013331 51 13 3.0 15.0 0.00 0.01 0.01 28 1012.1
20260505012832 52 9 1.0 15.0 0.00 0.01 0.01 28 1012.1
20260505012332 52 4 3.0 15.0 0.00 0.01 0.01 27 1012.0
20260505011831 52 11 3.0 15.0 0.00 0.01 0.01 28 1011.9
20260505011331 52 1 2.0 15.0 0.00 0.01 0.01 27 1011.8
20260505010830 52 354 2.0 15.0 0.00 0.01 0.01 27 1011.9
20260505010331 53 19 3.0 15.0 0.00 0.01 0.01 27 1011.9
20260505005831 53 4 5.0 15.0 0.00 0.01 0.01 27 1011.9
20260505005331 53 358 2.0 15.0 0.00 0.01 0.01 26 1011.9
20260505004832 53 13 2.0 15.0 0.00 0.01 0.01 26 1012.0
20260505004332 53 359 2.0 15.0 0.00 0.01 0.01 26 1011.9
20260505003832 53 18 1.0 15.0 0.00 0.01 0.01 26 1012.0
20260505003332 53 17 5.0 15.0 0.00 0.01 0.01 26 1012.0
20260505002832 53 2 6.0 15.0 0.00 0.01 0.01 26 1012.0
20260505002332 54 15 2.0 15.0 0.00 0.01 0.01 26 1012.0
20260505001831 54 9 5.0 15.0 0.00 0.01 0.01 26 1011.9
20260505001331 54 5 3.0 15.0 0.00 0.01 0.01 26 1011.9
20260505000831 54 16 3.0 15.0 0.00 0.01 0.01 26 1011.8
20260505000331 54 13 1.0 15.0 0.00 0.01 0.01 27 1011.8
20260504235831 54 12 1.0 15.0 0.00 0.01 0.01 26 1011.8
20260504235331 54 29 2.0 15.0 0.00 0.01 0.01 26 1011.7
20260504234831 54 1 2.0 15.0 0.00 0.01 0.01 27 1011.7
20260504234331 54 343 3.0 15.0 0.00 0.01 0.01 26 1011.7
20260504233831 54 15 2.0 15.0 0.00 0.01 0.01 26 1011.7
20260504233331 54 13 2.0 15.0 0.00 0.01 0.01 26 1011.7
20260504232831 54 51 0.0 15.0 0.00 0.01 0.01 27 1011.6
20260504232331 54 358 1.0 15.0 0.00 0.01 0.01 27 1011.7
20260504231830 54 9 3.0 15.0 0.00 0.01 0.01 25 1011.5
20260504231330 54 11 6.0 15.0 0.00 0.01 0.01 25 1011.6
20260504230831 54 24 3.0 15.0 0.00 0.01 0.01 25 1011.5
20260504230331 54 6 2.0 15.0 0.00 0.01 0.01 26 1011.5
20260504225831 54 357 3.0 15.0 0.00 0.01 0.01 25 1011.6
20260504225331 55 7 5.0 15.0 0.00 0.01 0.01 25 1011.5
20260504224831 55 18 0.0 15.0 0.00 0.01 0.01 26 1011.4
20260504224331 55 21 1.0 15.0 0.00 0.01 0.01 26 1011.3
20260504223831 55 350 0.0 15.0 0.00 0.01 0.01 26 1011.3
20260504223331 55 34 2.0 15.0 0.00 0.01 0.01 26 1011.2
20260504222831 55 0 1.0 15.0 0.00 0.01 0.01 25 1011.4
20260504222330 55 0 3.0 15.0 0.00 0.01 0.01 25 1011.5
20260504221831 55 5 2.0 15.0 0.00 0.01 0.01 25 1011.4
20260504221330 55 19 0.0 15.0 0.00 0.01 0.01 26 1011.4
20260504220830 55 17 1.0 15.0 0.00 0.01 0.01 25 1011.5
20260504220331 55 11 0.0 15.0 0.00 0.01 0.01 25 1011.7
20260504215830 55 17 1.0 15.0 0.00 0.01 0.01 25 1011.7
20260504215330 55 0 1.0 15.0 0.00 0.01 0.01 25 1011.6
20260504214830 54 18 2.0 15.0 0.00 0.01 0.01 26 1011.7
20260504214330 54 14 1.0 15.0 0.00 0.01 0.01 26 1011.7
20260504213831 54 358 3.0 15.0 0.00 0.01 0.01 25 1011.7
20260504213331 55 11 6.0 15.0 0.00 0.01 0.01 24 1011.8
20260504212831 55 358 2.0 15.0 0.00 0.01 0.01 25 1011.7
20260504212331 54 54 2.0 15.0 0.00 0.01 0.01 25 1011.8
20260504211831 54 351 2.0 15.0 0.00 0.01 0.01 25 1011.8
20260504211331 54 349 5.0 15.0 0.00 0.01 0.01 24 1011.9
20260504210831 55 23 1.0 15.0 0.00 0.01 0.01 25 1011.8
20260504210331 55 343 2.0 15.0 0.00 0.01 0.01 25 1011.7
20260504205831 55 28 0.0 15.0 0.00 0.01 0.01 26 1011.8
20260504205330 55 3 1.0 15.0 0.00 0.01 0.01 26 1011.8
20260504204830 56 358 2.0 15.0 0.00 0.01 0.01 25 1011.7
20260504204330 56 355 1.0 15.0 0.00 0.01 0.01 25 1011.7
20260504203831 56 20 2.0 15.0 0.00 0.01 0.01 25 1011.8
20260504203330 56 342 1.0 15.0 0.00 0.01 0.01 26 1011.8
20260504202831 56 333 5.0 15.0 0.00 0.01 0.01 25 1011.8
20260504202330 56 82 1.0 15.0 0.00 0.01 0.01 26 1011.8
20260504201830 56 0 2.0 15.0 0.00 0.01 0.01 25 1011.8
20260504201331 55 338 3.0 15.0 0.00 0.01 0.01 26 1011.7
20260504200830 55 9 1.0 15.0 0.00 0.01 0.01 26 1011.7
20260504200329 54 345 2.0 15.0 0.00 0.01 0.01 26 1011.8
20260504195831 54 358 5.0 13.0 0.00 0.01 0.01 26 1011.8
20260504195331 54 5 2.0 12.0 0.00 0.01 0.01 28 1011.9
20260504194830 54 54 2.0 12.0 0.00 0.01 0.01 27 1011.7
20260504194330 54 6 3.0 12.0 0.00 0.01 0.01 27 1011.7
20260504193831 54 25 2.0 12.0 0.00 0.01 0.01 28 1011.7
20260504193330 54 4 2.0 12.0 0.00 0.01 0.01 29 1011.7
20260504192831 55 8 3.0 12.0 0.00 0.01 0.01 29 1011.6
20260504192330 55 344 2.0 12.0 0.00 0.01 0.01 29 1011.7